TimeAEST,TemperatureF,Dew PointF,Humidity,Sea Level PressureIn,VisibilityMPH,Wind Direction,Wind SpeedMPH,Gust SpeedMPH,PrecipitationIn,Events,Conditions,WindDirDegrees,DateUTC
12:00 AM,76,76,99,29.83,,ESE,20.7,,,,,120,2013-02-15 14:00:00
12:00 AM,77.0,75.2,94,29.83,-9999.0,ESE,20.7,-,N/A,,Unknown,120,2013-02-15 14:00:00
12:30 AM,77.0,75.2,94,29.83,-9999.0,ESE,21.9,-,N/A,,Unknown,120,2013-02-15 14:30:00
1:00 AM,77.0,77.0,100,29.80,-9999.0,SE,20.7,38.0,N/A,,Unknown,130,2013-02-15 15:00:00
1:30 AM,77.0,77.0,100,29.80,-9999.0,ESE,24.2,-,N/A,,Unknown,120,2013-02-15 15:30:00
2:00 AM,77.0,75.2,94,29.80,-9999.0,ESE,23.0,-,N/A,,Unknown,120,2013-02-15 16:00:00
2:30 AM,78.8,77.0,94,29.77,-9999.0,SE,23.0,-,N/A,,Unknown,130,2013-02-15 16:30:00
3:00 AM,79,76,87,29.78,,ESE,25.3,,,,,110,2013-02-15 17:00:00
3:00 AM,78.8,75.2,89,29.77,-9999.0,ESE,25.3,-,N/A,,Unknown,110,2013-02-15 17:00:00
3:27 AM,77.0,75.2,94,29.77,-9999.0,ENE,21.9,-,N/A,,Unknown,70,2013-02-15 17:27:00
3:30 AM,77.0,75.2,94,29.77,-9999.0,ENE,21.9,-,N/A,,Unknown,70,2013-02-15 17:30:00
3:41 AM,77.0,75.2,94,29.77,-9999.0,East,25.3,-,N/A,,Unknown,90,2013-02-15 17:41:00
4:00 AM,75.2,75.2,100,29.77,-9999.0,East,23.0,-,N/A,,Unknown,90,2013-02-15 18:00:00
4:30 AM,77.0,77.0,100,29.77,-9999.0,East,21.9,-,N/A,,Unknown,100,2013-02-15 18:30:00
5:00 AM,78.8,77.0,94,29.77,-9999.0,ESE,18.4,-,N/A,,Unknown,110,2013-02-15 19:00:00
5:18 AM,77.0,73.4,89,29.77,-9999.0,ENE,25.3,-,N/A,,Unknown,70,2013-02-15 19:18:00
5:30 AM,75.2,75.2,100,29.80,-9999.0,NE,23.0,-,N/A,,Unknown,50,2013-02-15 19:30:00
5:47 AM,73.4,73.4,100,29.80,-9999.0,East,25.3,-,N/A,,Unknown,90,2013-02-15 19:47:00
6:00 AM,74,,,29.80,,East,28.8,,,,,90,2013-02-15 20:00:00
6:00 AM,75.2,75.2,100,29.80,-9999.0,East,28.8,-,N/A,,Unknown,90,2013-02-15 20:00:00
6:30 AM,73.4,73.4,100,29.83,-9999.0,ENE,16.1,-,N/A,,Unknown,70,2013-02-15 20:30:00
7:00 AM,75.2,73.4,94,29.83,-9999.0,East,12.7,-,N/A,,Unknown,80,2013-02-15 21:00:00
7:30 AM,77.0,75.2,94,29.83,-9999.0,East,16.1,-,N/A,,Unknown,90,2013-02-15 21:30:00
8:00 AM,78.8,75.2,89,29.83,-9999.0,East,11.5,-,N/A,,Unknown,80,2013-02-15 22:00:00
8:30 AM,75.2,73.4,94,29.86,-9999.0,NNE,9.2,-,N/A,,Unknown,30,2013-02-15 22:30:00
9:00 AM,74,74,100,29.86,,SE,8.1,,,,,130,2013-02-15 23:00:00
9:00 AM,75.2,73.4,94,29.86,-9999.0,SE,8.1,-,N/A,,Unknown,130,2013-02-15 23:00:00
9:30 AM,77.0,75.2,94,29.86,-9999.0,SE,4.6,-,N/A,,Unknown,130,2013-02-15 23:30:00
10:00 AM,77.0,75.2,94,29.86,-9999.0,South,10.4,-,N/A,,Unknown,170,2013-02-16 00:00:00
10:27 AM,77.0,77.0,100,29.86,-9999.0,ESE,19.6,-,N/A,,Unknown,110,2013-02-16 00:27:00
10:30 AM,77.0,77.0,100,29.86,-9999.0,ESE,19.6,-,N/A,,Unknown,110,2013-02-16 00:30:00
11:00 AM,78.8,75.2,89,29.83,-9999.0,ESE,19.6,-,N/A,,Unknown,110,2013-02-16 01:00:00
11:30 AM,80.6,77.0,89,29.83,-9999.0,East,18.4,-,N/A,,Unknown,100,2013-02-16 01:30:00
12:00 PM,80,76,82,29.83,,East,18.4,,,,,100,2013-02-16 02:00:00
12:00 PM,80.6,75.2,84,29.83,-9999.0,East,18.4,-,N/A,,Unknown,100,2013-02-16 02:00:00
12:30 PM,80.6,77.0,89,29.83,-9999.0,East,17.3,-,N/A,,Unknown,100,2013-02-16 02:30:00
1:00 PM,80.6,75.2,84,29.80,-9999.0,ESE,16.1,-,N/A,,Unknown,110,2013-02-16 03:00:00
1:30 PM,82.4,77.0,84,29.80,-9999.0,ESE,16.1,-,N/A,,Unknown,110,2013-02-16 03:30:00
2:00 PM,82.4,77.0,84,29.80,-9999.0,ESE,16.1,-,N/A,,Unknown,110,2013-02-16 04:00:00
2:30 PM,82.4,77.0,84,29.77,-9999.0,East,17.3,-,N/A,,Unknown,100,2013-02-16 04:30:00
3:00 PM,80,75,81,29.77,,East,23.0,,,,,100,2013-02-16 05:00:00
3:00 PM,80.6,75.2,84,29.77,-9999.0,East,23.0,-,N/A,,Unknown,100,2013-02-16 05:00:00
3:30 PM,80.6,77.0,89,29.77,-9999.0,East,23.0,-,N/A,,Unknown,100,2013-02-16 05:30:00
4:00 PM,80.6,75.2,84,29.77,-9999.0,East,21.9,-,N/A,,Unknown,90,2013-02-16 06:00:00
4:30 PM,80.6,75.2,84,29.77,-9999.0,East,18.4,-,N/A,,Unknown,100,2013-02-16 06:30:00
5:00 PM,78.8,75.2,89,29.77,-9999.0,East,21.9,-,N/A,,Unknown,100,2013-02-16 07:00:00
5:30 PM,80.6,75.2,84,29.77,-9999.0,East,17.3,-,N/A,,Unknown,90,2013-02-16 07:30:00
6:00 PM,80,76,82,29.78,,ESE,19.6,,,,,110,2013-02-16 08:00:00
6:00 PM,80.6,75.2,84,29.77,-9999.0,ESE,19.6,-,N/A,,Unknown,110,2013-02-16 08:00:00
6:30 PM,80.6,75.2,84,29.80,-9999.0,East,19.6,-,N/A,,Unknown,100,2013-02-16 08:30:00
7:00 PM,78.8,75.2,89,29.77,-9999.0,ESE,18.4,-,N/A,,Unknown,120,2013-02-16 09:00:00
7:30 PM,78.8,75.2,89,29.80,-9999.0,ESE,21.9,-,N/A,,Unknown,110,2013-02-16 09:30:00
8:00 PM,80.6,75.2,84,29.80,-9999.0,East,23.0,-,N/A,,Unknown,100,2013-02-16 10:00:00
8:30 PM,78.8,77.0,94,29.80,-9999.0,ESE,24.2,-,N/A,,Unknown,120,2013-02-16 10:30:00
9:00 PM,79,75,85,29.82,,ESE,27.6,,,,,110,2013-02-16 11:00:00
9:00 PM,78.8,75.2,89,29.83,-9999.0,ESE,27.6,-,N/A,,Unknown,110,2013-02-16 11:00:00
9:30 PM,78.8,77.0,94,29.83,-9999.0,ESE,24.2,-,N/A,,Unknown,110,2013-02-16 11:30:00
10:00 PM,77.0,77.0,100,29.83,-9999.0,SE,23.0,-,N/A,,Unknown,130,2013-02-16 12:00:00
10:24 PM,78.8,77.0,94,29.83,-9999.0,East,26.5,-,N/A,,Unknown,100,2013-02-16 12:24:00
10:30 PM,78.8,75.2,89,29.83,-9999.0,ESE,26.5,-,N/A,,Unknown,110,2013-02-16 12:30:00
11:00 PM,77.0,77.0,100,29.83,-9999.0,ESE,26.5,-,N/A,,Unknown,120,2013-02-16 13:00:00
11:30 PM,78.8,75.2,89,29.83,-9999.0,ESE,25.3,-,N/A,,Unknown,110,2013-02-16 13:30:00